#timestamp,LO_Frequency,Hit,StdDev 
1590602415.4,286047002.7,N
1590602435.2,286047002.3,N
1590602455.0,286047000.3,N
1590602455.9,286047000.3,N
1590602475.8,286047000.4,N
1590602495.6,286047002.3,N
1590602515.4,286047000.6,N
1590602535.3,286047000.7,N
1590602555.1,286046998.9,N
1590602575.9,286046998.0,N
1590602595.7,286046998.0,N
1590602615.5,286046995.1,Y
1590602635.4,286046995.0,P
1590602655.2,286046996.6,N
1590602675.0,286046999.3,N
1590602675.9,286046999.3,N
1590602695.8,286046997.1,N
1590602715.6,286046997.1,N
1590602735.5,286046997.8,N
1590602755.3,286046995.1,Y
1590602775.1,286046998.6,P
1590602795.9,286046998.5,P
1590602815.7,286046999.0,N
1590602835.5,286046999.0,N
1590602855.4,286047001.1,N
1590602875.2,286046998.1,N
1590602895.1,286047000.0,N
1590602896.0,286047000.0,N
1590602915.8,286047001.8,N
1590602935.6,286047004.1,Y
1590602955.5,286047003.0,P
1590602975.3,286047003.8,N
1590602995.1,286047004.0,N
1590603015.9,286047002.6,N
1590603035.7,286047003.6,N
1590603055.6,286047004.3,N
1590603075.4,286047002.8,N
1590603095.2,286047001.1,N
1590603115.1,286046998.1,N
1590603116.0,286046998.1,N
1590603135.8,286046998.9,N
1590603155.6,286047000.3,N
1590603175.5,286047000.9,N
1590603195.3,286047001.0,N
1590603215.2,286047002.5,N
1590603235.9,286047003.7,N
1590603255.7,286047004.3,N
1590603275.6,286047004.3,N
1590603295.4,286047004.4,N
1590603315.2,286047003.2,N
1590603335.1,286047003.7,N
1590603336.0,286047003.7,N
1590603355.8,286047003.6,N
1590603375.7,286047004.2,N
1590603395.5,286047003.1,N
1590603415.3,286047003.5,N
1590603435.2,286047003.5,N
1590603455.9,286047003.0,N
1590603475.7,286047003.1,N
1590603495.6,286047003.2,N
1590603515.4,286047004.1,N
1590603535.3,286047003.0,N
1590603555.1,286047002.9,N
1590603556.0,286047002.9,N
1590603575.8,286047003.0,N
1590603595.7,286047003.6,N
1590603615.5,286047003.5,N
1590603635.3,286047003.0,N
1590603655.2,286047003.5,N
1590603675.0,286047002.9,N
1590603675.9,286047002.9,N
1590603695.8,286047004.1,Y
1590603715.6,286046998.1,P
1590603735.4,286046996.5,N
1590603755.3,286046998.8,N
1590603775.1,286046998.2,N
1590603795.8,286047000.8,N
1590603815.7,286046998.3,N
1590603835.5,286047001.2,N
1590603855.4,286046998.3,N
1590603875.2,286047000.4,N
1590603895.0,286047001.1,N
1590603895.9,286047001.1,N
1590603915.8,286047000.2,N
1590603935.6,286047002.4,N
1590603955.4,286047002.8,N
1590603975.3,286047000.1,N
1590603995.1,286047002.8,N
1590604015.9,286047002.8,N
1590604035.7,286047002.8,N
1590604055.5,286047002.7,N
1590604075.4,286047002.8,N
1590604095.2,286047002.4,N
1590604115.0,286047002.4,N
1590604115.9,286047002.4,N
1590604135.8,286047002.0,N
1590604155.6,286047001.6,N
1590604175.5,286047001.8,N
1590604195.3,286047002.2,N
1590604215.1,286047001.3,N
1590604235.9,286047004.1,N
1590604255.7,286047003.8,N
1590604275.5,286047001.9,N
1590604295.4,286047001.7,N
1590604315.2,286047001.8,N
1590604335.1,286046999.8,N
1590604336.0,286046999.8,N
1590604355.8,286047002.2,N
1590604375.6,286047000.7,N
1590604395.5,286046999.9,N
1590604415.3,286047001.0,N
1590604435.2,286046998.5,N
1590604455.9,286046998.7,N
1590604475.7,286046997.0,N
1590604495.6,286046996.6,N
1590604515.4,286046998.7,N
1590604535.2,286046998.5,N
1590604555.1,286046998.7,N
1590604556.0,286046998.7,N
1590604575.8,286047001.2,N
1590604595.7,286047000.2,N
1590604615.5,286047001.6,N
1590604635.3,286047001.3,N
1590604655.2,286047002.8,N
1590604675.0,286047002.3,N
1590604675.9,286047002.3,N
1590604695.8,286047002.3,N
1590604715.6,286047000.1,N
1590604735.4,286047000.6,N
1590604755.3,286047001.2,N
1590604775.1,286047001.1,N
1590604795.8,286046998.5,N
1590604815.7,286046998.7,N
1590604835.5,286046999.6,N
1590604855.4,286046997.8,N
1590604875.2,286046997.8,N
1590604895.0,286046997.7,N
1590604895.9,286046997.7,N
1590604915.8,286046997.0,N
1590604935.6,286046999.1,N
1590604955.4,286046999.5,N
1590604975.3,286046996.6,N
1590604995.1,286046996.7,N
1590605015.9,286046998.8,N
1590605035.7,286047000.7,N
1590605055.5,286046998.4,N
1590605075.4,286047000.8,N
1590605095.2,286046998.3,N
1590605115.0,286046998.7,N
1590605115.9,286046998.7,N
1590605135.8,286046998.9,N
1590605155.6,286046999.3,N
1590605175.5,286046998.2,N
1590605195.3,286047000.7,N
1590605215.1,286047000.7,N
1590605235.9,286046998.3,N
1590605255.7,286046998.2,N
1590605275.5,286047002.8,N
1590605295.4,286047002.2,N
1590605315.2,286047001.7,N
1590605335.1,286047004.1,N
1590605336.0,286047004.1,N
1590605355.8,286047004.0,N
1590605375.6,286047002.3,N
1590605395.5,286046999.7,N
1590605415.3,286047002.8,N
1590605435.1,286047000.5,N
1590605455.9,286047000.9,N
1590605475.7,286047001.2,N
1590605495.6,286046998.4,N
1590605515.4,286046997.0,N
1590605535.2,286046999.4,N
1590605555.1,286046998.8,N
1590605556.0,286046998.8,N
1590605575.8,286046998.5,N
1590605595.7,286047000.7,N
1590605615.5,286047002.6,N
1590605635.3,286046999.8,N
1590605655.2,286047002.4,N
1590605675.0,286047001.5,N
1590605675.9,286047001.5,N
1590605695.7,286047001.5,N
1590605715.6,286047002.0,N
1590605735.4,286047001.8,N
1590605755.3,286047001.7,N
1590605775.1,286047004.0,N
1590605776.0,286047004.0,N
1590605795.8,286047001.8,N
1590605815.7,286047002.7,N
1590605835.5,286047000.2,N
1590605855.4,286047000.6,N
1590605875.2,286046998.2,N
1590605895.0,286047000.1,N
1590605895.9,286047000.1,N
1590605915.8,286046999.7,N
1590605935.6,286047000.7,N
1590605955.4,286047001.2,N
1590605975.3,286046998.7,N
1590605995.1,286046998.8,N
